Погода в Степном Озере

Россия / Республика Татарстан     54°29′00″N   50°33′44″E
темп.,
°C
ветер,
м/с
пор.,
м/с
влажн.,
%
обл.,
%
осадки,
мм/ч
давл.,
гПа
погр.,
м
25 июля, вс
вс2500:00+12с36830 0.0 1014107
03:00+10ссз35780 0.0 101674
06:00+13с37610 0.0 1018238
09:00+18ссз46360 0.0 10191426
12:00+20ссз45313 0.0 10202021
15:00+21сз55323 0.0 10202079
18:00+19сз35450 0.0 1021322
21:00+14с115195 0.0 102210
26 июля, пн
пн2600:00+15зсз0047100 0.0 102210
03:00+15юз1249100 0.0 102315
06:00+16зюз115480 0.0 102369
09:00+20зсз234279 0.0 1023846
12:00+21сз2437100 0.0 10232236
15:00+22зсз453699 0.0 10222520
18:00+21зсз254996 0.0 1021194
21:00+15з226116 0.0 102213
27 июля, вт
вт2700:00+14зюз226891 0.0 102120
03:00+16зюз3659100 0.0 1020121
06:00+17з366399 0.0 1020210
09:00+22зсз45454 0.0 1019997
12:00+25зсз563695 0.0 10172686
15:00+22зсз5848100 0.0 1016743
18:00+19зсз47686 0.2 1016289
21:00+15зсз33830 0.2 101648
28 июля, ср
ср2800:00+14зсз238297 0.0 101728
03:00+13с34860 0.0 101765
06:00+15с24723 0.0 1017184
09:00+20ссв33485 0.0 10171038
12:00+23ссз23360 0.0 10161891
15:00+24зсз34310 0.0 10152204
18:00+22сз34440 0.0 1014168
21:00+16ю11555 0.0 101411
29 июля, чт
чт2900:00+15ююз335530 0.0 101331
03:00+14ююз37585 0.0 1012113
06:00+18юз386523 0.1 1011214
09:00+24зюз585370 0.4 1010651
12:00+27зюз7842100 0.0 10101177
15:00+23зюз101154100 0.0 10101092
18:00+18юз41183100 0.1 1009454
21:00+18ю4117691 0.1 1007316